FIN12 RPLL-EFHK

Flight info

Callsign FIN12
Flight time N/A
Altitude 34000
Route SIRCA2R SIRCA L628 ARESI/K0939F340 L628 PCA G474 PLK B202 BOMPA/N0506F340 B202 UBL G473 BGO L507 TEBOV/N0498F360 L507 CEA R460 GGC L509 SULOM/N0485F380 L509 TAPIS P173 DAVET B475 NINOP A909 RODAR N644 ADEKI/N0489F400 N644 ROLIN UN644 INB UL746 ODERO DCT VAKIS DCT URELA DCT AKUPO DCT KENIN DCT OBOSO/N0493F410 M857 BOKSU DCT ROLAV/N0494F400 DCT KEMET Q11 INTOR
Aircraft A359/H-SDE2E3GHIJ3J4J5LM1ORWXY/LB1D1

Departure

Time N/A
Airport Ninoy Aquino International Airport (RPLL)

Arrival

Time 2026-04-20 12:31
Airport Helsinki Vantaa Airport (EFHK)
Time Latitude Longitude Altitude Speed Heading
2026-04-20 12:12 59.13292 24.73543 30561 ft 459 kts 16°
2026-04-20 12:12 59.16429 24.74694 29418 ft 459 kts 16°
2026-04-20 12:12 59.19539 24.75837 28338 ft 460 kts 15°
2026-04-20 12:13 59.22676 24.76990 27454 ft 456 kts 15°
2026-04-20 12:13 59.25747 24.78111 26541 ft 440 kts 15°
2026-04-20 12:13 59.28713 24.79192 25540 ft 429 kts 15°
2026-04-20 12:13 59.31632 24.80267 24550 ft 423 kts 15°
2026-04-20 12:14 59.34513 24.81338 23534 ft 419 kts 15°
2026-04-20 12:14 59.37353 24.82396 22424 ft 413 kts 15°
2026-04-20 12:14 59.40139 24.83554 21352 ft 405 kts 19°
2026-04-20 12:14 59.42781 24.85313 20329 ft 397 kts 24°
2026-04-20 12:15 59.45337 24.87254 19320 ft 391 kts 25°
2026-04-20 12:15 59.47836 24.89264 18675 ft 387 kts 26°
2026-04-20 12:15 59.50320 24.91330 18383 ft 385 kts 26°
2026-04-20 12:15 59.52777 24.93395 18105 ft 382 kts 26°
2026-04-20 12:16 59.55215 24.95449 17813 ft 381 kts 26°
2026-04-20 12:16 59.57650 24.97496 17541 ft 380 kts 26°
2026-04-20 12:16 59.60077 24.99532 17265 ft 378 kts 26°
2026-04-20 12:16 59.62465 25.01535 17003 ft 377 kts 26°
2026-04-20 12:17 59.64879 25.03559 16739 ft 376 kts 26°
2026-04-20 12:17 59.67282 25.05577 16469 ft 375 kts 26°
2026-04-20 12:17 59.69627 25.07546 15990 ft 369 kts 26°
2026-04-20 12:17 59.71238 25.08901 15568 ft 366 kts 26°
2026-04-20 12:18 59.73580 25.10873 14924 ft 364 kts 26°
2026-04-20 12:18 59.75904 25.12834 14275 ft 362 kts 26°
2026-04-20 12:18 59.78211 25.14784 13575 ft 359 kts 26°
2026-04-20 12:18 59.80493 25.16715 12908 ft 355 kts 26°
2026-04-20 12:19 59.82760 25.18637 12468 ft 354 kts 26°
2026-04-20 12:19 59.85028 25.20556 12312 ft 351 kts 26°
2026-04-20 12:19 59.87215 25.22412 11890 ft 330 kts 26°
2026-04-20 12:19 59.89295 25.24041 11159 ft 314 kts 19°
2026-04-20 12:20 59.91437 25.24375 10409 ft 310 kts 355°
2026-04-20 12:20 59.93507 25.23313 9621 ft 303 kts 347°
2026-04-20 12:20 59.95486 25.22026 8794 ft 295 kts 346°
2026-04-20 12:20 59.97408 25.20773 8009 ft 287 kts 346°
2026-04-20 12:21 59.99292 25.19556 7258 ft 281 kts 346°
2026-04-20 12:21 60.01140 25.18370 6489 ft 276 kts 346°
2026-04-20 12:21 60.02905 25.17049 5701 ft 274 kts 337°
2026-04-20 12:21 60.04463 25.14866 4906 ft 275 kts 318°
2026-04-20 12:22 60.05577 25.11766 4130 ft 275 kts 302°
2026-04-20 12:22 60.06454 25.08434 3581 ft 264 kts 300°
2026-04-20 12:22 60.07255 25.05246 3174 ft 248 kts 300°
2026-04-20 12:22 60.08006 25.02231 2776 ft 236 kts 300°
2026-04-20 12:23 60.08720 24.99363 2406 ft 224 kts 300°
2026-04-20 12:23 60.09413 24.96582 2302 ft 224 kts 300°
2026-04-20 12:23 60.10108 24.93787 2290 ft 223 kts 300°
2026-04-20 12:23 60.10798 24.91009 2290 ft 222 kts 300°
2026-04-20 12:24 60.11486 24.88236 2292 ft 222 kts 300°
2026-04-20 12:24 60.12173 24.85454 2289 ft 222 kts 300°
2026-04-20 12:24 60.12937 24.82785 2292 ft 219 kts 310°
2026-04-20 12:24 60.13903 24.80522 2287 ft 209 kts 316°
2026-04-20 12:25 60.14901 24.78425 2299 ft 207 kts 317°
2026-04-20 12:25 60.15909 24.76362 2300 ft 207 kts 318°
2026-04-20 12:25 60.16899 24.74343 2290 ft 199 kts 318°
2026-04-20 12:25 60.17866 24.72401 2282 ft 199 kts 317°
2026-04-20 12:26 60.18849 24.70442 2285 ft 200 kts 317°
2026-04-20 12:26 60.19896 24.68667 2280 ft 192 kts 334°
2026-04-20 12:26 60.21129 24.68562 2289 ft 178 kts 22°
2026-04-20 12:26 60.22071 24.70100 2279 ft 175 kts 49°
2026-04-20 12:27 60.22841 24.71986 2269 ft 173 kts 48°
2026-04-20 12:27 60.23662 24.73738 2271 ft 172 kts 45°
2026-04-20 12:27 60.24463 24.75460 2182 ft 164 kts 46°
2026-04-20 12:27 60.25216 24.77101 1935 ft 155 kts 46°
2026-04-20 12:28 60.25929 24.78673 1722 ft 149 kts 46°
2026-04-20 12:28 60.26621 24.80240 1538 ft 149 kts 46°
2026-04-20 12:28 60.27339 24.81778 1446 ft 153 kts 46°
2026-04-20 12:28 60.27791 24.82766 1244 ft 151 kts 46°
2026-04-20 12:29 60.27816 24.82819 1237 ft 151 kts 46°
2026-04-20 12:29 60.28543 24.84383 998 ft 154 kts 45°
2026-04-20 12:29 60.29264 24.85898 741 ft 145 kts 45°
2026-04-20 12:29 60.29890 24.87354 624 ft 129 kts 43°
2026-04-20 12:30 60.30493 24.88637 406 ft 125 kts 43°
2026-04-20 12:30 60.31087 24.89941 255 ft 127 kts 42°
2026-04-20 12:30 60.31677 24.91237 168 ft 119 kts 43°
2026-04-20 12:30 60.32184 24.92345 169 ft 92 kts 47°
2026-04-20 12:31 60.32545 24.93135 183 ft 63 kts 48°
2026-04-20 12:31 60.32794 24.93686 198 ft 41 kts 47°
2026-04-20 12:31 60.32963 24.94053 204 ft 32 kts 47°
2026-04-20 12:31 60.33048 24.94269 203 ft 15 kts 72°
2026-04-20 12:32 60.33048 24.94524 190 ft 22 kts 92°
2026-04-20 12:32 60.32974 24.94770 201 ft 23 kts 138°
2026-04-20 12:32 60.32829 24.94957 181 ft 26 kts 162°
2026-04-20 12:32 60.32652 24.95073 203 ft 27 kts 162°
2026-04-20 12:33 60.32463 24.95197 199 ft 30 kts 163°
2026-04-20 12:33 60.32272 24.95389 181 ft 32 kts 140°
2026-04-20 12:33 60.32107 24.95698 179 ft 25 kts 137°
2026-04-20 12:33 60.31999 24.95901 178 ft 18 kts 136°
2026-04-20 12:34 60.31929 24.95952 175 ft 11 kts 216°
2026-04-20 12:34 60.31864 24.95817 175 ft 15 kts 227°
2026-04-20 12:34 60.31790 24.95653 175 ft 15 kts 228°
2026-04-20 12:34 60.31717 24.95520 175 ft 8 kts 188°
2026-04-20 12:35 60.31676 24.95586 171 ft 12 kts 136°
2026-04-20 12:35 60.31631 24.95681 169 ft 12 kts 134°
2026-04-20 12:35 60.31590 24.95757 169 ft 9 kts 138°
2026-04-20 12:35 60.31561 24.95812 170 ft 3 kts 137°
2026-04-20 12:36 60.31560 24.95813 170 ft 0 kts 137°